"Pseudo-MPEC" for C0MUJZ2

Created 2019 May 21 9:07:09 UT using Find_Orb

Click here for an explanation of pseudo-MPECs

 
 Astrometry: 
     C0MUJZ2  C2019 05 15.31597 16 19 12.94 -16 03 19.7    ~5F8b 19.3 GVNEOCPG96
     C0MUJZ2  C2019 05 15.32161 16 19 10.34 -16 03 23.0    ~5F8b 19.5 GVNEOCPG96
     C0MUJZ2  C2019 05 15.32724 16 19 07.71 -16 03 25.7    ~5F8b 19.4 GVNEOCPG96
     C0MUJZ2  C2019 05 15.33287 16 19 05.14 -16 03 29.0    ~5F8b 19.9 GVNEOCPG96
     C0MUJZ2  C2019 05 15.35350516 18 55.43 -16 03 40.4    ~5F9M 20.0 GVNEOCPH01
     C0MUJZ2  C2019 05 15.36033216 18 52.29 -16 03 43.8    ~5F9M 19.9 GVNEOCPH01
     C0MUJZ2  C2019 05 15.36985916 18 47.91 -16 03 48.7    ~5F9M 19.5 GVNEOCPH01
     C0MUJZ2  C2019 05 15.37615216 18 45.03 -16 03 51.7    ~5F9M 19.8 GVNEOCPH01
     C0MUJZ2  C2019 05 15.44221 16 18 15.11 -16 04 22.7    ~5FB7 19.7 GVNEOCPI52
     C0MUJZ2  C2019 05 15.44268 16 18 14.91 -16 04 22.8    ~5FB7 19.4 GVNEOCPI52
     C0MUJZ2  C2019 05 15.44315 16 18 14.68 -16 04 23.1    ~5FB7 19.3 GVNEOCPI52
     C0MUJZ2  C2019 05 15.44363 16 18 14.45 -16 04 23.5    ~5FB7 19.7 GVNEOCPI52
     C0MUJZ2  C2019 05 16.32745 16 12 11.84 -16 11 14.0    ~5G8M 19.0 GVNEOCPI52
     C0MUJZ2  C2019 05 16.32985 16 12 10.84 -16 11 14.9    ~5G8M 19.6 GVNEOCPI52
     C0MUJZ2  C2019 05 16.33105 16 12 10.41 -16 11 15.0    ~5G8M 19.5 GVNEOCPI52
     C0MUJZ2 IC2019 05 16bZTO+oJAstrometry@y@SbtACtZCWM%pKdPM9X5M3eXi4t9TM3aiL01
     C0MUJZ2 pC2019 05 16a\f\predacted;/mwidI-dSZW1J*x5bh#6'1=or,VTLl$\click`L01
     C0MUJZ2 KC2019 05 16!%$J2h#lF5p*g+mUb]7s!,kay4cWJIYO'];o;ao*Xq=GM*dy+JEGL01
     C0MUJZ2 KC2019 05 16fx[OV_Ri4YLO)gjxKHRCfypl^ZEhereC^DjforJC%TSd,Bx@H'#jL01
     C0MUJZ2 pC2019 05 16LU;t.^`a.,EBexplanation,iPYQM_+#kVeK7hocD0^,IxmW+97(L01

Station data:
(G96) Mt. Lemmon Survey  (N32.442754 W110.788720)  US/Arizona.  Observers T.
   A. Pruyne, B. M. Africano, E. J. Christensen, G. A. Farneth, D. C. Fuls,
   A. R. Gibbs, A. D. Grauer, H. Groeller, J. A. Johnson, R. A. Kowalski, S.
   M. Larson, G. J. Leonard, R. L. Seaman, F. C. Shelly. 1.5-m reflector +
   10K CCD.
(H01) Magdalena Ridge Observatory, Socorro  (N33.984833 W107.189333)  US/New
   Mexico.  Observers W. H. Ryan, E. V. Ryan. Measurer W. H. Ryan. 2.4-m
   f/8.9 reflector + CCD.
(I52) Steward Observatory, Mt. Lemmon Station  (N32.442547 W110.788920)
   US/Arizona.  Observers T. A. Pruyne, B. M. Africano, E. J. Christensen, G.
   A. Farneth, D. C. Fuls, A. R. Gibbs, A. D. Grauer, H. Groeller, J. A.
   Johnson, R. A. Kowalski, S. M. Larson, G. J. Leonard, R. L. Seaman, F. C.
   Shelly. 1.0-m reflector + CCD.
(L01) Višnjan Observatory, Tičan  (N45.290900 E13.749300)  Croatia.
   Observers K. Korlević, E. Pettarin. Measurer E. Pettarin. 1.0-m f/2.9
   reflector + CCD.

Orbital elements:  C0MUJZ2
   Perihelion 2019 Mar 16.465916 +/- 0.294 TT = 11:10:55 (JD 2458558.965916)
Epoch 2019 May 16.0 TT = JDT 2458619.5   Earth MOID: 0.0184   Ve: 0.0043
M  20.46892951 +/- 0.8              Ma: 0.0145                AutoNEOCP
n   0.33813891 +/- 0.0121           Peri.   49.38853 +/- 0.10
a   2.04051258 +/- 0.0486           Node    79.22493 +/- 0.13
e   0.7410773 +/- 0.00785           Incl.    1.87897 +/- 0.027
P   2.91                   H 22.8   G  0.15   U  9.8  
q 0.52833500 +/- 0.00333    Q 3.55269015 +/- 0.0973
From 20 observations 2019 May 15-16 (38.1 hr); mean residual 0".23
Residuals in arcseconds: 
190515 G96  .04-  .13+    190515 H01  .06+  .03+    190516 I52  .48+  .36+    
190515 G96  .09+  .15-    190515 I52  .02+  .04+    190516 L01  .20-  .02-    
190515 G96  .30-  .14+    190515 I52  .20+  .16+    190516 L01  .02-  .58-    
190515 G96  .15+  .19-    190515 I52  .06-  .07+    190516 L01  .16+  .37-    
190515 H01  .06+  .03-    190515 I52  .25-  .10-    190516 L01  .34-  .63+    
190515 H01  .06+  .02+    190516 I52  .10-  .15-    190516 L01  .40+  .23+    
190515 H01  .02-  .10-    190516 I52  .39-  .05-    

Ephemerides (geocentric):
Date (UTC) HH   RA              Dec         delta   r     elong  mag " sig PA
---- -- -- --  -------------   -----------  ------ ------ -----  --- ---- ---
2019 05 21 09  15 47 22.301   -16 32 57.44  .23839 1.2500 176.4 20.5 5.25  90
2019 05 21 10  15 47 13.110   -16 33 04.30  .23891 1.2505 176.4 20.5 5.31  90
2019 05 21 11  15 47 03.958   -16 33 11.12  .23942 1.2511 176.3 20.5 5.36  90
2019 05 21 12  15 46 54.846   -16 33 17.90  .23993 1.2516 176.3 20.5 5.42  90
2019 05 21 13  15 46 45.772   -16 33 24.64  .24045 1.2521 176.3 20.5 5.47  90
2019 05 21 14  15 46 36.738   -16 33 31.33  .24097 1.2526 176.3 20.5 5.53  90
2019 05 21 15  15 46 27.742   -16 33 37.99  .24148 1.2531 176.2 20.5 5.59  90
2019 05 21 16  15 46 18.784   -16 33 44.60  .24200 1.2536 176.2 20.5 5.64  90
2019 05 21 17  15 46 09.865   -16 33 51.17  .24251 1.2542 176.2 20.5 5.70  90
2019 05 21 18  15 46 00.983   -16 33 57.71  .24303 1.2547 176.1 20.5 5.75  90
2019 05 21 19  15 45 52.140   -16 34 04.21  .24355 1.2552 176.1 20.6 5.81  90
2019 05 21 20  15 45 43.334   -16 34 10.67  .24406 1.2557 176.1 20.6 5.87  90
2019 05 21 21  15 45 34.565   -16 34 17.09  .24458 1.2562 176.0 20.6 5.92  90
2019 05 21 22  15 45 25.833   -16 34 23.47  .24510 1.2567 176.0 20.6 5.98  89
2019 05 21 23  15 45 17.139   -16 34 29.81  .24562 1.2573 176.0 20.6 6.03  89
2019 05 22 00  15 45 08.481   -16 34 36.12  .24614 1.2578 175.9 20.6 6.09  89
2019 05 22 01  15 44 59.859   -16 34 42.40  .24665 1.2583 175.9 20.6 6.15  89
2019 05 22 02  15 44 51.274   -16 34 48.63  .24717 1.2588 175.8 20.6 6.20  89
2019 05 22 03  15 44 42.726   -16 34 54.84  .24769 1.2593 175.8 20.6 6.26  89
2019 05 22 04  15 44 34.213   -16 35 01.00  .24821 1.2598 175.8 20.6 6.31  89
2019 05 22 05  15 44 25.736   -16 35 07.13  .24873 1.2604 175.7 20.6 6.37  89
2019 05 22 06  15 44 17.294   -16 35 13.23  .24925 1.2609 175.7 20.6 6.42  89
2019 05 22 07  15 44 08.889   -16 35 19.29  .24977 1.2614 175.6 20.6 6.48  89
2019 05 22 08  15 44 00.518   -16 35 25.32  .25029 1.2619 175.6 20.6 6.53  89
2019 05 22 09  15 43 52.182   -16 35 31.32  .25081 1.2624 175.5 20.7 6.59  89
2019 05 22 10  15 43 43.882   -16 35 37.28  .25133 1.2629 175.5 20.7 6.64  89
2019 05 22 11  15 43 35.615   -16 35 43.21  .25185 1.2635 175.4 20.7 6.70  89
2019 05 22 12  15 43 27.384   -16 35 49.11  .25237 1.2640 175.4 20.7 6.75  89
2019 05 22 13  15 43 19.187   -16 35 54.98  .25290 1.2645 175.3 20.7 6.81  89
2019 05 22 14  15 43 11.024   -16 36 00.82  .25342 1.2650 175.3 20.7 6.86  89
2019 05 22 15  15 43 02.895   -16 36 06.62  .25394 1.2655 175.2 20.7 6.92  89
2019 05 22 16  15 42 54.799   -16 36 12.39  .25446 1.2660 175.2 20.7 6.97  89
2019 05 22 17  15 42 46.738   -16 36 18.14  .25498 1.2665 175.1 20.7 7.03  89
2019 05 22 18  15 42 38.710   -16 36 23.85  .25551 1.2671 175.1 20.7 7.08  89
2019 05 22 19  15 42 30.715   -16 36 29.53  .25603 1.2676 175.0 20.7 7.14  89
2019 05 22 20  15 42 22.753   -16 36 35.18  .25655 1.2681 175.0 20.7 7.19  89
2019 05 22 21  15 42 14.825   -16 36 40.81  .25708 1.2686 174.9 20.7 7.25  89
2019 05 22 22  15 42 06.929   -16 36 46.40  .25760 1.2691 174.9 20.8 7.30  89
2019 05 22 23  15 41 59.065   -16 36 51.97  .25813 1.2696 174.8 20.8 7.36  89
2019 05 23 00  15 41 51.234   -16 36 57.51  .25865 1.2701 174.8 20.8 7.41  89
2019 05 23 01  15 41 43.436   -16 37 03.02  .25917 1.2707 174.7 20.8 7.46  88
2019 05 23 02  15 41 35.669   -16 37 08.50  .25970 1.2712 174.7 20.8 7.52  88
2019 05 23 03  15 41 27.935   -16 37 13.96  .26022 1.2717 174.6 20.8 7.57  88
2019 05 23 04  15 41 20.232   -16 37 19.39  .26075 1.2722 174.6 20.8 7.62  88
2019 05 23 05  15 41 12.561   -16 37 24.79  .26128 1.2727 174.5 20.8 7.68  88
2019 05 23 06  15 41 04.922   -16 37 30.17  .26180 1.2732 174.5 20.8 7.73  88
2019 05 23 07  15 40 57.314   -16 37 35.52  .26233 1.2737 174.4 20.8 7.78  88
2019 05 23 08  15 40 49.737   -16 37 40.84  .26285 1.2743 174.4 20.8 7.84  88